Home   Weather   San Luis Potosi   Past weeks

Flag for Mexico Past Weather in San Luis Potosi, San Luis Potosí, Mexico — Yesterday and Last 2 Weeks

Now
57 °F

Clear.


Feels Like: 55 °F
Forecast: 51 / 72 °F
Wind: 9 mph from West

Location: San Luis Potosi - S. L. P.

Current Time: Jan 19, 2017 at 11:49:19 pm

Latest Report: Jan 19, 2017 at 10:43 pm


Visibility: 10 mi

Pressure: 30.13 "Hg (24.10 "Hg at 1876m altitude)

Humidity: 17%

Dew Point: 12 °F

Location of San Luis PotosiLocation

Past Weather in San Luis Potosi — Graph

°F

San Luis Potosi Temperature Yesterday

Maximum temperature yesterday: 73 °F (at 2:51 pm)
Minimum temperature yesterday: 45 °F (at 5:44 am)
Average temperature yesterday: 60 °F

High & Low Weather Summary for the Past Weeks

 TemperatureHumidityPressure
High84 °F (Jan 5, 2:40 pm)100% (Jan 7, 5:43 am)30.60 "Hg (Jan 7, 5:43 am)
Low27 °F (Jan 10, 7:46 am)2% (Jan 11, 3:45 pm)28.66 "Hg (Jan 11, 8:42 pm)
Average56 °F44%30.18 "Hg
* Reported Jan 4 9:52 pm — Jan 19 9:44 pm, San Luis Potosi, Weather by CustomWeather, © 2017

Note: Actual official high and low records may vary slightly from our data, if they occured in-between our weather recording intervals... More about our weather records

Advertising

San Luis Potosi Weather History for the Previous 24 Hours

Scroll right to see more
 ConditionsComfort  
Time TempWeatherWind HumidityBarometerVisibility
9:44 pm
Thu, Jan 19
61 °FClear.12 mph16%30.14 "Hg10 mi
8:45 pm61 °FPassing clouds.8 mph19%29.73 "Hg10 mi
7:45 pm63 °FPassing clouds.6 mph15%30.10 "Hg10 mi
6:44 pm66 °FPassing clouds.8 mph13%30.08 "Hg13 mi
5:45 pm72 °FPartly sunny.17 mph12%29.71 "Hg13 mi
4:44 pm73 °FOvercast.15 mph13%30.05 "Hg13 mi
3:45 pm75 °FOvercast.15 mph12%30.06 "Hg13 mi
2:43 pm75 °FOvercast.16 mph10%29.62 "Hg13 mi
1:40 pm73 °FHigh level clouds.16 mph13%30.09 "Hg15 mi
12:52 pm73 °FPartly sunny.9 mph15%30.12 "Hg15 mi
11:40 am70 °FPartly sunny.16 mph23%29.80 "Hg15 mi
10:48 am66 °FPartly sunny.9 mph28%30.20 "Hg15 mi
9:49 am63 °FPartly sunny.14 mph37%30.20 "Hg15 mi
8:54 am61 °FMore clouds than sun.7 mph36%29.81 "Hg15 mi
7:42 am55 °FBroken clouds.5 mph47%30.19 "Hg12 mi
6:47 am55 °FPassing clouds.7 mph47%30.19 "Hg8 mi
5:43 am55 °FMostly cloudy.6 mph44%29.81 "Hg8 mi
4:48 am57 °FMostly cloudy.No wind39%30.16 "Hg8 mi
3:47 am57 °FMostly cloudy.6 mph39%30.18 "Hg8 mi
2:40 am57 °FMostly cloudy.No wind36%29.80 "Hg8 mi
1:50 am59 °FMostly cloudy.8 mph34%30.19 "Hg8 mi
12:53 am59 °FMostly cloudy.6 mph31%30.21 "Hg10 mi
Weather by CustomWeather, © 2017

See weather overviewHow to use our weather pages